Regional Weather Roundup
Issued by NWS

Home | Current Version | Previous Version | Text Only | Print | Product List | Glossary On
Versions: 1 2 3 4 5 6 7 8 9 10 11 12 13 14 15 16 17 18 19 20 21 22 23 24 25 26 27 28 29 30 31 32 33 34 35 36 37 38 39 40 41 42 43 44 45 46 47 48 49 50
000
ASUS43 KMPX 271301
RWRMN
WEATHER ROUNDUP FOR MINNESOTA
NATIONAL WEATHER SERVICE TWIN CITIES/CHANHASSEN MN
700 AM CST THU NOV 27 2014


NOTE: "FAIR" INDICATES FEW OR NO CLOUDS BELOW 12,000 FEET WITH NO
SIGNIFICANT WEATHER AND/OR OBSTRUCTIONS TO VISIBILITY. N/A MEANS
CURRENT SKY AND/OR WEATHER CONDITIONS ARE NOT AVAILABLE.

MNZ060>063-068>070-271400-
   Twin Cities Metro

CITY           SKY/WX    TMP DP  RH WIND       PRES   REMARKS
TWIN CITIES    PTCLDY    -2  -7  79 NW7       30.50R WCI -15
ST PAUL        PTCLDY    -1  -6  79 NW9       30.52R WCI -16
CRYSTAL        PTCLDY    -1  -7  75 NW6       30.49S WCI -13
BLAINE         PTCLDY    -2  -6  84 W6        30.49R WCI -14
LAKEVILLE      MOCLDY    -8 -11  84 NW7       30.48R WCI -22
EDEN PRAIRIE   PTCLDY    -2  -7  79 N5        30.49R WCI -12
SOUTH ST PAUL  PTCLDY     0  -6  76 N6        30.50R WCI -12
LAKE ELMO      FAIR       0  -6  78 N3        30.48S
$$
MNZ001>005-007-008-013>017-022>024-027-028-271400-
   Northwest Minnesota

CITY           SKY/WX    TMP DP  RH WIND       PRES   REMARKS
BEMIDJI        MOCLDY   -19 -26  73 CALM      30.44S
HALLOCK        MOCLDY   -15 -20  76 SE6       30.49S WCI -29
ROSEAU         MOCLDY   -17 -24  70 S5        30.46F WCI -29
WARROAD        MOCLDY   -17 -22  76 SW5       30.45F WCI -29
THIEF RVR FALL PTCLDY   -15 -22  70 CALM      30.47S
CROOKSTON      PTCLDY   -15 -20  76 S3        30.53R
FOSSTON        PTCLDY   -20 -27  69 CALM      30.46F HAZE
DETROIT LAKES  MOCLDY   -11 -15  84 CALM      30.47R
MOORHEAD       MOCLDY   -11 -15  84 CALM      30.53S
PARK RAPIDS    MOCLDY   -16 -21  78 W3        30.43S
MAHNOMEN       FAIR     -13 -18  79 S3        30.47F
$$
MNZ006-009>011-018-025>026-271400-
   North Central Minnesota

CITY           SKY/WX    TMP DP  RH WIND       PRES   REMARKS
BAUDETTE       MOCLDY   -17 -22  78 S3        30.44F
FLAG ISLAND    PTCLDY   -17 -20  83 CALM      30.44F
INTL FALLS     MOCLDY   -19 -25  73 W3        30.45S
WASKISH        MOCLDY   -17 -20  83 CALM      30.46S
BIG FORK       MOCLDY   -17 -22  76 CALM      30.44S
LONGVILLE      SNOW     -11 -17  77 CALM      30.44S VSB 1/2
GRAND RAPIDS   MOCLDY   -11 -15  84 NW5       30.42S WCI -23
CRANE LAKE     PTCLDY   -18 -24  76 CALM      30.47R
ORR            PTCLDY   -17 -22  76 CALM      30.39F
COOK           PTCLDY   -20 -26  76 CALM      30.42F
WALKER         FAIR     -17 -22  78 CALM      30.45S
$$
MNZ012-019>021-037-271400-
   Northeast Minnesota

CITY           SKY/WX    TMP DP  RH WIND       PRES   REMARKS
DULUTH         PTCLDY    -9 -15  75 N8        30.39R WCI -25
ELY            PTCLDY   -18 -24  76 CALM      30.40S
HIBBING        MOCLDY   -15 -22  70 CALM      30.42S
EVELETH        FLURRIES  -9 -15  77 CALM      30.42F
DULUTH HARBOR  PTCLDY     0  -9  65 W8        30.50S WCI -15
TWO HARBORS    PTCLDY    -2  -9  71 NW6       30.39S WCI -14
SILVER BAY     PTCLDY    -6 -11  77 NW3       30.39S
GRAND MARAIS     N/A     -4 -13  65 N17G33    30.40R WCI -26
G MARAIS ARPRT PTCLDY   -13 -20  70 N10       30.30S WCI -32
$$
MNZ029>031-032-039>041-046>048-054>057-064-271400-
   West Central Minnesota

CITY           SKY/WX    TMP DP  RH WIND       PRES   REMARKS
FERGUS FALLS   PTCLDY   -13 -18  77 CALM      30.55S
WHEATON        MOCLDY   -11 -15  84 CALM      30.54F
MORRIS         MOCLDY   -11 -17  77 NW6       30.50F WCI -25
ALEXANDRIA     PTCLDY    -8 -12  83 W7        30.47S WCI -23
ELBOW LAKE     FAIR     -12 -16  82 W3        30.49F
WADENA         MOCLDY   -11 -17  77 CALM      30.45F
GLENWOOD       PTCLDY    -9 -15  77 W5        30.48S WCI -21
APPLETON       MOCLDY    -9 -15  77 CALM      30.53F
BENSON         PTCLDY   -11 -17  77 CALM      30.51F
ORTONVILLE     MOCLDY    -9 -15  77 NW3       30.51F
MADISON        MOCLDY    -9 -15  77 CALM      30.53F
WILLMAR        FAIR      -8 -15  71 NW5       30.51S WCI -19
$$
MNZ033>034-036-042>043-049>051-058-059-271400-
   Central Minnesota

CITY           SKY/WX    TMP DP  RH WIND       PRES   REMARKS
ST CLOUD       PTCLDY    -5 -11  75 NW6       30.49S WCI -18
SAUK CENTRE    FAIR     -11 -15  82 W3        30.48F
PAYNESVILLE    MOCLDY   -12 -16  85 SW3       30.49F
AITKIN         PTCLDY    -8 -15  71 CALM      30.44S
PINE RIVER     MOCLDY   -11 -17  77 W3        30.48R
BRAINERD       PTCLDY    -9 -12  87 W5        30.47R WCI -20
STAPLES        MOCLDY   -11 -17  77 CALM      30.46F
LONG PRAIRIE   FAIR      -8 -13  77 CALM      30.46
LITTLE FALLS   MOCLDY    -8 -13  77 CALM      30.49S
LITCHFIELD     MOCLDY    -6  -9  84 W5        30.50S WCI -17
BUFFALO        MOCLDY    -4  -8  81 NW6       30.51S WCI -16
MAPLE LAKE     MOCLDY    -5  -8  85 NW5       30.50F WCI -16
$$
MNZ037-044-045-052-053-271400-
   East Central Minnesota

CITY           SKY/WX    TMP DP  RH WIND       PRES   REMARKS
PRINCETON      PTCLDY    -4  -9  77 CALM      30.49R
MORA             N/A    N/A N/A N/A MISG        N/A
CAMBRIDGE      CLEAR     -2  -9  71 CALM      30.47S
RUSH CITY      MOCLDY    -3  -8  80 N5        30.48S WCI -14
MOOSE LAKE     PTCLDY    -6 -11  77 NW3       30.44F
HINCKLEY       FAIR      -4  -8  84 CALM      30.47
CLOQUET        PTCLDY    -9 -15  77 NW3       30.41F
MCGREGOR       PTCLDY    -8 -11  84 NW5       30.46S WCI -19
$$
MNZ071>073-080-081-089-090-097-098-271400-
   Southwest Minnesota

CITY           SKY/WX    TMP DP  RH WIND       PRES   REMARKS
MONTEVIDEO     PTCLDY    -9 -15  77 CALM      30.54S
GRANITE FALLS  MOCLDY    -9 -14  80 W6        30.54F WCI -23
CANBY          PTCLDY   -10 -15  80 W6        30.52F WCI -24
MARSHALL       PTCLDY    -9 -15  77 NW6       30.49F WCI -23
REDWOOD FALLS  PTCLDY   -11 -15  82 NW9       30.52F WCI -29
OLIVIA         PTCLDY    -8 -13  77 NW8       30.52S WCI -23
PIPESTONE      MOCLDY    -6 -13  71 CALM      30.43S
WINDOM         PTCLDY    -9 -15  77 NW9       30.47F WCI -27
WORTHINGTON    MOCLDY    -9 -11  92 CALM      30.45F
JACKSON        PTCLDY    -9 -15  77 N5        30.46F WCI -21
TRACY          PTCLDY    -8 -13  80 W6        30.49F WCI -21
SLAYTON        MOCLDY    -8 -13  81 N9        30.45F WCI -26
$$
MNZ065>067-074>077-082>085-091>093-271400-
   South Central Minnesota

CITY           SKY/WX    TMP DP  RH WIND       PRES   REMARKS
MANKATO        PTCLDY    -9 -15  77 NW7       30.49S WCI -24
NEW ULM        MOCLDY   -17 -20  83 W7        30.52S WCI -33
ST JAMES       PTCLDY   -11 -17  77 W9        30.52S WCI -29
FAIRMONT       PTCLDY    -8 -15  71 NW9       30.47F WCI -25
GLENCOE        MOCLDY    -6 -10  84 W5        30.51R WCI -17
FARIBAULT      PTCLDY    -8 -11  84 W6        30.48R WCI -21
OWATONNA       MOCLDY   -11 -17  77 W5        30.47R WCI -23
WASECA         MOCLDY   -11 -18  70 NW6       30.50S WCI -25
ALBERT LEA     MOCLDY    -9 -13  84 W7        30.46R WCI -24
$$
MNZ078>079-086>088-094>096-271400-
   Southeast Minnesota

CITY           SKY/WX    TMP DP  RH WIND       PRES   REMARKS
ROCHESTER      MOCLDY    -5  -9  83 NW9       30.42R WCI -22
RED WING         N/A      0  -6  78 NW5       30.48R WCI -10
STANTON        MOCLDY    -4  -8  84 CALM      30.47S
DODGE CENTER   MOCLDY    -4  -8  84 NW9       30.42R WCI -20
WINONA         CLEAR     10   3  72 NW14      30.46R WCI  -5
AUSTIN         PTCLDY    -6  -9  84 NW8       30.44R WCI -21
PRESTON        PTCLDY     1  -4  80 NW8       30.41R WCI -13
$$
ABBREVIATIONS USED IN REMARKS
   TC - TEMPERATURES IN CELSIUS
  WCI - WIND CHILL INDEX
   HX - HEAT INDEX
  VSB - VISIBILITY
$$


USA.gov is the U.S. government's official web portal to all federal, state and local government web resources and services.